[[{"header":{"parameterUnit":"m.s-1","parameterCategory":1,"la1":30.2991,"la2":30.254,"lo1":-89.0895,"lo2":-89.0444,"dy":0.0017,"dx":0.0017,"nx":28,"ny":28,"refTime":"2026-01-04T09:00:00:Z","depth":0,"parameterNumber":2,"parameterNumberName":"U-component_of_WINDS"},"data":[0,0,0,0,0,0,0,0,0,0,0,0,0,0,0,0,0,0,0,0,0,0,0,0,0,0,0,0,0,0,0,0,0,0,0,0,0,0,0,0,0,0,0,0,0,0,0,0,0,0,0,0,0,0,0,0,0,0,-2.6605,-2.6605,0,-2.6623,-2.6623,-2.6623,-2.6547,-2.6544,-2.6542,-2.654,-2.6557,-2.656,-2.6562,0,0,0,0,0,0,0,0,0,0,0,0,0,-2.6506,-2.6508,-2.6605,-2.6605,-2.6606,-2.6623,-2.6623,-2.6623,-2.6547,-2.6544,-2.6542,-2.6539,-2.6556,-2.6559,-2.6563,0,0,0,0,0,0,0,0,0,0,0,0,0,-2.6539,-2.6509,-2.6605,-2.657,-2.6567,-2.6623,-2.6623,-2.6623,-2.6548,-2.6544,-2.6541,-2.6538,-2.6555,-2.6559,-2.6563,-2.6653,0,0,-2.6575,-2.6576,0,0,0,0,0,0,0,0,-2.6537,-2.6542,-2.6575,-2.6572,-2.6569,-2.6579,-2.6594,-2.6633,-2.6548,-2.6555,-2.654,-2.6536,-2.6567,-2.657,-2.658,-2.6654,-2.6655,-2.6575,-2.6577,-2.6579,-2.658,0,0,0,0,0,0,0,-2.6535,-2.6541,-2.6612,-2.6575,-2.6572,-2.6553,-2.6554,-2.6601,-2.658,-2.6554,-2.6549,-2.6552,-2.6565,-2.6577,-2.658,-2.6655,-2.6575,-2.6578,-2.6581,-2.6582,-2.6805,-2.6809,0,0,0,0,0,0,-2.6537,-2.654,-2.6611,-2.6612,-2.6544,-2.6557,-2.6558,-2.6579,-2.6579,-2.6576,-2.6555,-2.6548,-2.6572,-2.6576,-2.6581,-2.6688,-2.6579,-2.6582,-2.6585,-2.6802,-2.6806,-2.681,0,0,0,0,0,0,-2.6535,-2.6544,-2.6611,-2.6575,-2.6582,-2.6563,-2.6587,-2.6581,-2.6593,-2.6579,-2.6575,-2.6571,-2.657,-2.6575,-2.6636,-2.6687,-2.6584,-2.6588,-2.6798,-2.6803,-2.6808,-2.6902,0,0,0,0,0,0,-2.6533,-2.6544,-2.6578,-2.6576,-2.6584,-2.6667,-2.659,-2.6584,-2.66,-2.6592,-2.6593,-2.659,-2.6567,-2.6631,-2.664,-2.6691,-2.6591,-2.6793,-2.68,-2.6806,-2.6895,-2.691,-2.6924,0,0,0,0,0,-2.653,-2.6604,-2.6581,-2.659,-2.6626,-2.667,-2.6674,-2.6646,-2.6604,-2.6639,-2.663,-2.659,-2.668,-2.6638,-2.6647,-2.67,-2.679,-2.6798,-2.6806,-2.6888,-2.6907,-2.6923,0,0,0,0,0,0,-2.6612,-2.6603,-2.6577,-2.6652,-2.6663,-2.6657,-2.6699,-2.6667,-2.6689,-2.6681,-2.6645,-2.6646,-2.6713,-2.6712,-2.6666,-2.6788,-2.6727,-2.6738,-2.6787,-2.6805,-2.6819,-2.6819,-2.6594,0,0,0,0,0,-2.6639,-2.6675,-2.6665,-2.6732,-2.6739,-2.6718,-2.6736,-2.6714,-2.6723,-2.6726,-2.6722,-2.6732,-2.6762,-2.6783,-2.681,-2.6894,-2.6894,-2.6934,-2.6949,-2.6961,-2.6971,-2.7017,-2.7035,-2.6837,-2.6837,-2.6837,0,0,-2.6695,-2.6694,-2.6719,-2.6749,-2.6754,-2.6793,-2.6722,-2.6765,-2.6794,-2.6733,-2.6791,-2.6788,-2.6797,-2.687,-2.6902,-2.6871,-2.7026,-2.6972,-2.6981,-2.6985,-2.7027,-2.7046,-2.7062,-2.6843,-2.6842,-2.6841,0,0,-2.6817,-2.682,-2.6877,-2.6884,-2.6893,-2.6879,-2.6893,-2.6892,-2.6888,-2.6946,-2.6901,-2.6934,-2.6987,-2.6996,-2.7007,-2.7133,-2.7098,-2.7143,-2.722,-2.7265,-2.728,-2.7294,-2.734,-2.7357,-2.7153,-2.7153,-2.7153,0,-2.6886,-2.6942,-2.6911,-2.6958,-2.6972,-2.6919,-2.6978,-2.6986,-2.7003,-2.7015,-2.698,-2.7046,-2.7048,-2.7123,-2.7154,-2.7164,-2.718,-2.7143,-2.728,-2.7294,-2.7306,-2.735,-2.7368,-2.7158,-2.7158,-2.7157,-2.7157,0,-2.7026,-2.7066,-2.7111,-2.7131,-2.715,-2.7203,-2.718,-2.7203,-2.718,-2.7169,-2.7229,-2.723,-2.7257,-2.7273,-2.7249,-2.7345,-2.7326,-2.7286,-2.7225,-2.7331,-2.7372,-2.7388,-2.7166,-2.7164,-2.7163,-2.7161,0,0,-2.7201,-2.7203,-2.722,-2.7229,-2.7235,-2.7265,-2.7315,-2.7342,-2.7364,-2.7378,-2.742,-2.7466,-2.743,-2.7443,-2.742,-2.7459,-2.7561,-2.7415,-2.7414,-2.7443,-2.7668,-2.7699,-2.7719,-2.7537,-2.7541,-2.7543,-2.7668,0,-2.7322,-2.7409,-2.7383,-2.747,-2.7507,-2.7457,-2.7501,-2.751,-2.7501,-2.7532,-2.7522,-2.7556,-2.7505,-2.7513,-2.7549,-2.7541,-2.7606,-2.7532,-2.7577,-2.7579,-2.7578,-2.774,-2.7773,-2.7891,-2.7684,-2.7686,-2.7688,0,-2.7475,-2.7496,-2.7587,-2.7589,-2.7603,-2.7643,-2.7666,-2.7696,-2.7705,-2.7696,-2.7711,-2.7681,-2.773,-2.7668,-2.7736,-2.7686,-2.7703,-2.7702,-2.7706,-2.771,-2.7641,-2.775,-2.7928,-2.7946,-2.7713,-2.7711,-2.7709,0,-2.7596,-2.7647,-2.7708,-2.7717,-2.7719,-2.7749,-2.7751,-2.7757,-2.7775,-2.7795,-2.7807,-2.7832,-2.7847,-2.7867,-2.7844,-2.7801,-2.7917,-2.7852,-2.7912,-2.7913,-2.7939,-2.7938,-2.8124,-2.7948,-2.7948,-2.7948,-2.7947,0,-2.7735,-2.7793,-2.7762,-2.7801,-2.7864,-2.7833,-2.7897,-2.7894,-2.79,-2.7937,-2.7894,-2.793,-2.7897,-2.7929,-2.7911,-2.7972,-2.7978,-2.7973,-2.7968,-2.7978,-2.7979,-2.7989,-2.7981,-2.7952,-2.7951,-2.795,-2.7949,0,-2.7881,-2.7862,-2.7927,-2.7924,-2.7925,-2.7972,-2.797,-2.8005,-2.7994,-2.8041,-2.805,-2.8033,-2.8069,-2.8048,-2.8085,-2.8073,-2.8152,-2.8134,-2.8149,-2.8145,-2.8207,-2.8202,-2.8406,-2.8432,-2.8239,-2.8241,-2.8242,0,-2.7971,-2.8015,-2.8018,-2.804,-2.8045,-2.8081,-2.8099,-2.8071,-2.8092,-2.8106,-2.814,-2.8172,-2.8197,-2.8257,-2.8248,-2.8276,-2.826,-2.833,-2.8264,-2.8273,-2.8263,-2.8261,-2.8266,-2.8343,-2.8346,-2.8347,-2.8349,0,-2.8135,-2.8124,-2.8153,-2.8179,-2.8203,-2.8222,-2.8238,-2.8258,-2.8229,-2.8255,-2.8292,-2.8311,-2.8349,-2.8382,-2.8406,-2.8408,-2.8375,-2.837,-2.8385,-2.8396,-2.8404,-2.8402,-2.8187,-2.8365,-2.8364,-2.8362,-2.8362,-2.8361,-2.8257,-2.8294,-2.8302,-2.8336,-2.8345,-2.8361,-2.8394,-2.8388,-2.8418,-2.8447,-2.8428,-2.8472,-2.848,-2.8509,-2.8516,-2.855,-2.8522,-2.8544,-2.855,-2.8556,-2.8565,-2.8397,-2.8554,-2.8553,-2.8553,-2.8552,-2.8552,0,-2.8419,-2.8422,-2.8454,-2.8477,-2.8504,-2.847,-2.8486,-2.8511,-2.855,-2.8561,-2.8586,-2.8629,-2.8661,-2.8655,-2.8684,-2.8713,-2.8698,-2.8721,-2.872,-2.8721,-2.8588,-2.8572,-2.8733,-2.8733,-2.8733,-2.8733,-2.8733,-2.8733,-2.8507,-2.8569,-2.8559,-2.8625,-2.8627,-2.867,-2.8682,-2.8697,-2.8706,-2.8756,-2.8782,-2.8778,-2.8782,-2.8812,-2.884,-2.8837,-2.885,-2.888,-2.8872,-2.8748,-2.873,-2.8713,-2.8698,-2.8883,-2.8883,-2.9002,-2.9003,-2.9004]},{"header":{"parameterUnit":"m.s-1","parameterCategory":1,"la1":30.2991,"la2":30.254,"lo1":-89.0895,"lo2":-89.0444,"dy":0.0017,"dx":0.0017,"nx":28,"ny":28,"refTime":"2026-01-04T09:00:00:Z","depth":0,"parameterNumber":3,"parameterNumberName":"V-component_of_WINDS"},"data":[0,0,0,0,0,0,0,0,0,0,0,0,0,0,0,0,0,0,0,0,0,0,0,0,0,0,0,0,0,0,0,0,0,0,0,0,0,0,0,0,0,0,0,0,0,0,0,0,0,0,0,0,0,0,0,0,0,0,-4.2482,-4.2482,0,-4.2523,-4.2523,-4.2524,-4.2488,-4.2486,-4.2485,-4.2484,-4.2521,-4.2524,-4.2526,0,0,0,0,0,0,0,0,0,0,0,0,0,-4.237,-4.2372,-4.2482,-4.2482,-4.2483,-4.2523,-4.2523,-4.2524,-4.2488,-4.2486,-4.2485,-4.2483,-4.2521,-4.2523,-4.2526,0,0,0,0,0,0,0,0,0,0,0,0,0,-4.2415,-4.2373,-4.2482,-4.247,-4.2469,-4.2522,-4.2523,-4.2524,-4.2488,-4.2486,-4.2484,-4.2482,-4.252,-4.2523,-4.2527,-4.2592,0,0,-4.2537,-4.2539,0,0,0,0,0,0,0,0,-4.2412,-4.2419,-4.2471,-4.2471,-4.247,-4.2498,-4.2497,-4.2547,-4.2489,-4.2481,-4.2483,-4.2481,-4.2515,-4.2519,-4.2531,-4.2594,-4.2595,-4.2538,-4.254,-4.2541,-4.2542,0,0,0,0,0,0,0,-4.2409,-4.2417,-4.2498,-4.2472,-4.2472,-4.2461,-4.2465,-4.2506,-4.251,-4.2482,-4.2479,-4.2485,-4.2514,-4.2528,-4.2532,-4.2596,-4.2538,-4.2541,-4.2543,-4.2544,-4.2714,-4.2716,0,0,0,0,0,0,-4.2408,-4.2415,-4.2497,-4.2499,-4.2436,-4.2465,-4.247,-4.2491,-4.2509,-4.251,-4.2486,-4.2483,-4.2523,-4.2528,-4.2533,-4.2611,-4.2541,-4.2545,-4.2547,-4.2712,-4.2715,-4.2717,0,0,0,0,0,0,-4.2406,-4.2416,-4.2495,-4.2456,-4.2466,-4.247,-4.2494,-4.2493,-4.2507,-4.2513,-4.2513,-4.25,-4.2521,-4.2528,-4.2578,-4.2612,-4.2546,-4.2549,-4.2709,-4.2713,-4.2716,-4.2767,0,0,0,0,0,0,-4.2403,-4.2415,-4.2441,-4.2457,-4.2468,-4.2541,-4.2496,-4.2496,-4.2513,-4.2509,-4.2526,-4.2526,-4.252,-4.2573,-4.2581,-4.2615,-4.2552,-4.2706,-4.2711,-4.2715,-4.2763,-4.2772,-4.2781,0,0,0,0,0,-4.2399,-4.2453,-4.2443,-4.2453,-4.2501,-4.2543,-4.2549,-4.2542,-4.2516,-4.2542,-4.2546,-4.2526,-4.2607,-4.2578,-4.2588,-4.2623,-4.2704,-4.2709,-4.2714,-4.2759,-4.277,-4.278,0,0,0,0,0,0,-4.2439,-4.2455,-4.2443,-4.2505,-4.2523,-4.2537,-4.2569,-4.2554,-4.2579,-4.2574,-4.2563,-4.2567,-4.2619,-4.2626,-4.2594,-4.2687,-4.2651,-4.2658,-4.2681,-4.2692,-4.2701,-4.2699,-4.2555,0,0,0,0,0,-4.2456,-4.249,-4.2501,-4.2554,-4.2564,-4.2565,-4.2583,-4.2576,-4.2594,-4.2601,-4.2608,-4.2625,-4.2654,-4.2673,-4.2701,-4.2763,-4.2766,-4.2792,-4.2801,-4.2808,-4.2815,-4.2849,-4.286,-4.2735,-4.2735,-4.2735,0,0,-4.2489,-4.2502,-4.2524,-4.2562,-4.2576,-4.261,-4.2571,-4.2609,-4.2634,-4.2606,-4.2654,-4.266,-4.2678,-4.2735,-4.276,-4.2742,-4.285,-4.2815,-4.2821,-4.2824,-4.2855,-4.2867,-4.2878,-4.2738,-4.2738,-4.2737,0,0,-4.2568,-4.2581,-4.2627,-4.2642,-4.2662,-4.2663,-4.2674,-4.269,-4.2693,-4.2741,-4.2721,-4.2749,-4.28,-4.2814,-4.2827,-4.2912,-4.2894,-4.292,-4.2967,-4.3,-4.301,-4.3018,-4.3049,-4.3059,-4.2927,-4.2927,-4.2927,0,-4.2607,-4.2659,-4.2652,-4.2692,-4.2709,-4.2686,-4.2732,-4.2746,-4.2774,-4.2786,-4.2765,-4.2828,-4.2839,-4.2898,-4.2919,-4.2931,-4.2942,-4.2919,-4.3009,-4.3018,-4.3026,-4.3054,-4.3066,-4.293,-4.293,-4.293,-4.2929,0,-4.2706,-4.2743,-4.2777,-4.2806,-4.2827,-4.287,-4.2868,-4.289,-4.2881,-4.2883,-4.2932,-4.2944,-4.2973,-4.2986,-4.2978,-4.3045,-4.3033,-4.3011,-4.2974,-4.3041,-4.3068,-4.3079,-4.2935,-4.2934,-4.2933,-4.2932,0,0,-4.2812,-4.2837,-4.285,-4.2863,-4.2884,-4.2912,-4.2953,-4.2983,-4.3002,-4.3021,-4.3055,-4.3098,-4.3078,-4.3094,-4.3086,-4.3115,-4.3181,-4.3089,-4.309,-4.3106,-4.3255,-4.3272,-4.3285,-4.3169,-4.3171,-4.3173,-4.3254,0,-4.2892,-4.2965,-4.296,-4.3028,-4.3062,-4.304,-4.3076,-4.3092,-4.3095,-4.3122,-4.3125,-4.3156,-4.3127,-4.3136,-4.3164,-4.3167,-4.3211,-4.3161,-4.32,-4.3201,-4.3196,-4.3299,-4.3316,-4.3392,-4.3264,-4.3266,-4.3267,0,-4.2995,-4.3021,-4.3093,-4.311,-4.3123,-4.3156,-4.3182,-4.3209,-4.3227,-4.3227,-4.3244,-4.3232,-4.3272,-4.3234,-4.3289,-4.3255,-4.327,-4.3274,-4.3277,-4.328,-4.3238,-4.3305,-4.3416,-4.3428,-4.3283,-4.3282,-4.3281,0,-4.3066,-4.3117,-4.3168,-4.3179,-4.32,-4.3223,-4.3232,-4.3248,-4.3266,-4.3289,-4.33,-4.3327,-4.3342,-4.3362,-4.3357,-4.333,-4.3413,-4.3374,-4.3413,-4.3413,-4.3432,-4.3431,-4.3547,-4.3441,-4.3441,-4.3441,-4.3441,0,-4.3156,-4.3201,-4.32,-4.323,-4.328,-4.3272,-4.3321,-4.3327,-4.3341,-4.3372,-4.3354,-4.3383,-4.3374,-4.3402,-4.3398,-4.3444,-4.345,-4.3451,-4.3449,-4.3453,-4.3453,-4.3463,-4.3457,-4.3444,-4.3443,-4.3443,-4.3442,0,-4.3243,-4.3244,-4.3297,-4.3313,-4.3317,-4.3353,-4.3365,-4.3394,-4.3395,-4.3434,-4.3443,-4.3445,-4.3477,-4.3473,-4.3509,-4.3506,-4.3563,-4.3555,-4.3558,-4.3556,-4.3595,-4.3592,-4.3722,-4.3739,-4.3622,-4.3623,-4.3624,0,-4.3301,-4.3335,-4.3355,-4.3375,-4.3386,-4.3418,-4.3437,-4.3431,-4.3451,-4.3474,-4.3499,-4.353,-4.3554,-4.3606,-4.361,-4.3637,-4.3629,-4.3673,-4.3633,-4.3636,-4.363,-4.3628,-4.3632,-4.3681,-4.3683,-4.3684,-4.3684,0,-4.3403,-4.3402,-4.3431,-4.3461,-4.3484,-4.3506,-4.3526,-4.3543,-4.3538,-4.3562,-4.3595,-4.3614,-4.3651,-4.3682,-4.3707,-4.3715,-4.3699,-4.3697,-4.3707,-4.3712,-4.3712,-4.3712,-4.358,-4.3694,-4.3693,-4.3692,-4.3692,-4.3692,-4.3478,-4.3508,-4.3526,-4.3559,-4.3573,-4.3593,-4.362,-4.3626,-4.3654,-4.3685,-4.3678,-4.3716,-4.3732,-4.3765,-4.3775,-4.3803,-4.3787,-4.3802,-4.3806,-4.381,-4.3815,-4.3707,-4.3808,-4.3808,-4.3807,-4.3807,-4.3807,0,-4.358,-4.3591,-4.3621,-4.365,-4.3676,-4.366,-4.3681,-4.3703,-4.3737,-4.3754,-4.3778,-4.3816,-4.3846,-4.3852,-4.388,-4.3901,-4.3895,-4.3909,-4.3907,-4.3909,-4.3828,-4.3816,-4.3914,-4.3914,-4.3914,-4.3914,-4.3914,-4.3914,-4.3636,-4.3685,-4.3686,-4.3742,-4.3752,-4.379,-4.3804,-4.3821,-4.3835,-4.3879,-4.3904,-4.3908,-4.392,-4.3949,-4.3975,-4.3976,-4.3987,-4.4004,-4.4002,-4.3926,-4.3915,-4.3905,-4.3894,-4.4006,-4.4006,-4.4081,-4.4082,-4.4082]}]]